User: anonymous   Login
Location: Napier
(39.4830°S, 176.9170°E)
Time: 10:09:20
(UTC+13:00)
Language:

Cosmos 2360 Rocket - Orbit

View from above orbital plane
View from above orbital plane
View from above satellite
View from above satellite

Ground track
Ground track

The orbit data is extracted from the following two-line orbital elements,

1 25407U 98045B   19287.76165822 +.00000210 +00000-0 +13086-3 0  9992
2 25407 071.0123 056.0401 0008418 336.8120 023.2622 14.15790965096160
Epoch (UTC): 14 October 2019 18:16:47
Eccentricity: 0.0008418
inclination: 71.0123°
perigee height: 833 km
apogee height: 846 km
right ascension of ascending node: 56.0401°
argument of perigee: 336.8120°
revolutions per day: 14.15790965
mean anomaly at epoch: 23.2622°
orbit number at epoch: 9616

The dashed part of the orbit path shows where the satellite is in the earth's shadow,  

DLR